Regional Weather Roundup
Issued by NWS Raleigh/Durham, NC

Home | Current Version | Previous Version | Text Only | Print | Product List | Glossary On
Versions: 1 2 3 4 5 6 7 8 9 10 11 12 13 14 15 16 17 18 19 20 21 22 23 24 25 26 27 28
000
ASUS42 KRAH 230110
RWRRAH
NORTH CAROLINA WEATHER ROUNDUP
NATIONAL WEATHER SERVICE RALEIGH NC
800 PM EST SUN JAN 22 2017

NOTE: "FAIR" INDICATES FEW OR NO CLOUDS BELOW 12,000 FEET WITH NO
SIGNIFICANT WEATHER AND/OR OBSTRUCTIONS TO VISIBILITY.

NCZ001-053-055-056-065-067-230200-
WESTERN NORTH CAROLINA

CITY           SKY/WX    TMP DP  RH WIND       PRES   REMARKS
ASHEVILLE      RAIN      54  50  86 VRB5      29.30F
JEFFERSON      RAIN      47  47 100 SE3       29.46R VSB 1/4
MORGANTON      RAIN      54  54 100 NE6       29.45F
HICKORY        LGT RAIN  54  53  97 NE10      29.40F
RUTHERFORDTON  DRIZZLE   55  55 100 E13       29.34F
MOUNT AIRY     CLOUDY    52  51  95 E10G16    29.49R FOG
BOONE          RAIN      47  47 100 E3        29.46R
$$

NCZ021-022-025-041-071-084-088-230200-
CENTRAL NORTH CAROLINA

CITY           SKY/WX    TMP DP  RH WIND       PRES   REMARKS
CHARLOTTE      RAIN      58  56  93 E15       29.38F
GREENSBORO     LGT RAIN  52  52 100 E7        29.49R VSB 1/2
WINSTON-SALEM  LGT RAIN  52  50  93 E8        29.49R FOG
RALEIGH-DURHAM CLOUDY    54  52  93 NE8       29.47F FOG
FORT BRAGG     LGT RAIN  57  57  99 E6        29.48R
FAYETTEVILLE   LGT RAIN  60  57  89 E6        29.48R
BURLINGTON     CLOUDY    54  53  97 NE7       29.47F
LAURINBURG     LGT RAIN  59  58  96 E9        29.46R FOG
$$

NCZ011-015-027-028-043-044-047-080-103-230200-
NORTHEASTERN NORTH CAROLINA

CITY           SKY/WX    TMP DP  RH WIND       PRES   REMARKS
ROCKY MT-WILSO CLOUDY    53  53 100 NE7       29.51F FOG
GREENVILLE     CLOUDY    55  55 100 E3        29.56S FOG
WASHINGTON     CLOUDY    56  55  95 NE6         N/A
ELIZABETH CITY CLOUDY    51  50  96 N7        29.57F
MANTEO         CLOUDY    49  49 100 N7        29.57F FOG
CAPE HATTERAS  CLOUDY    56  54  93 NE7       29.53F FOG
$$

NCZ078-087-090-091-093-098-101-230200-
SOUTHEASTERN NORTH CAROLINA

CITY           SKY/WX    TMP DP  RH WIND       PRES   REMARKS
LUMBERTON      LGT RAIN  61  60  97 E12       29.43F
GOLDSBORO      CLOUDY    57  57 100 E12       29.46F
KINSTON        CLOUDY    57  57 100 E6        29.52F
KENANSVILLE    CLOUDY    59  57  94 E5        29.49S
NEW BERN       CLOUDY    59  57  93 E7        29.52F
CHERRY POINT   CLOUDY    59  57  93 SE9       29.52F
BEAUFORT       CLOUDY    60  59  96 E5        29.53F
JACKSONVILLE   CLOUDY    60  60 100 CALM      29.51R
WILMINGTON     CLOUDY    58  58 100 NE7       29.46F
$$





USA.gov is the U.S. government's official web portal to all federal, state and local government web resources and services.